Location: Newark
(42.9858°N, 0.6717°E)
Time: 02:08:28
(UTC+00:00)

Courier 1B Rocket - Visible Passes

Search period start: 15 November 2019 00:00
Search period end: 25 November 2019 00:00
Orbit: 920 x 1202 km, 28.2° (Epoch: 14 November)

Date Brightness Start Highest point End Pass type
(mag) Time Alt. Az. Time Alt. Az. Time Alt. Az.
15 Nov 6.8 18:32:53 10° SW 18:39:04 26° S 18:42:55 18° SE visible
15 Nov 7.4 20:26:30 10° WSW 20:29:17 17° SW 20:29:17 17° SW visible
16 Nov 6.9 17:32:03 10° SW 17:38:06 26° S 17:44:18 10° SE visible
16 Nov 6.9 19:25:05 10° WSW 19:30:51 23° SSW 19:32:05 22° S visible
17 Nov 6.9 18:23:56 10° WSW 18:29:54 25° S 18:34:56 13° SE visible
17 Nov 7.4 20:18:12 10° SW 20:21:18 15° SSW 20:21:18 15° SSW visible
18 Nov 7.0 17:22:59 10° SW 17:28:57 26° S 17:35:06 10° SE visible
18 Nov 7.1 19:16:29 10° WSW 19:21:39 19° SSW 19:24:12 17° S visible
19 Nov 7.1 18:15:09 10° WSW 18:20:44 22° SSW 18:26:27 10° SE visible
19 Nov 7.6 20:10:48 10° SW 20:13:16 12° SSW 20:13:35 12° SSW visible
20 Nov 7.1 17:14:06 10° WSW 17:19:49 24° S 17:25:44 10° SE visible
20 Nov 7.5 19:08:17 10° SW 19:12:26 15° SSW 19:16:38 10° SSE visible
21 Nov 7.4 18:06:39 10° WSW 18:11:33 19° SSW 18:16:35 10° SSE visible
22 Nov 7.4 17:05:24 10° WSW 17:10:40 21° SSW 17:16:07 10° SE visible
22 Nov 7.7 19:01:13 10° SW 19:03:11 11° SSW 19:05:11 10° S visible
23 Nov 7.6 17:58:36 10° SW 18:02:22 15° SSW 18:06:12 10° S visible
24 Nov 7.6 16:57:00 10° SW 17:01:31 18° SSW 17:06:12 10° SSE visible
